Location: Hickory_CSC
(35.7330°N, 81.3330°W)
Time: 18:10:23
(UTC-04:00)

Cosmos 1356 Rocket - Visible Passes

Search period start: 21 September 2014 00:00
Search period end: 01 October 2014 00:00
Orbit: 550 x 606 km, 81.2° (Epoch: 20 September)

Date Brightness Start Highest point End Pass type
(mag) Time Alt. Az. Time Alt. Az. Time Alt. Az.
21 Sep 6.6 06:33:44 10° NNE 06:37:02 21° ENE 06:40:19 10° ESE visible
21 Sep 4.3 20:31:29 10° SSW 20:35:31 52° W 20:39:40 10° N visible
22 Sep 5.9 06:37:54 10° NNE 06:41:42 29° ENE 06:45:27 10° SE visible
22 Sep 5.1 20:36:18 10° SW 20:40:08 36° WNW 20:44:03 10° N visible
23 Sep 5.1 06:42:12 10° N 06:46:19 41° ENE 06:50:22 10° SSE visible
23 Sep 5.9 20:41:16 10° SW 20:44:45 26° WNW 20:48:19 10° NNW visible
24 Sep 4.3 06:46:37 10° N 06:50:55 59° E 06:55:08 10° SSE visible
24 Sep 6.4 20:46:28 10° WSW 20:49:25 18° WNW 20:52:24 10° NNW visible
25 Sep 3.6 06:51:08 10° N 06:55:29 86° E 06:59:45 10° S visible
25 Sep 6.9 20:52:03 10° W 20:54:06 13° WNW 20:56:10 10° NW visible
27 Sep 6.9 05:25:12 10° NE 05:27:07 13° ENE 05:29:01 10° E visible
28 Sep 6.5 05:28:52 10° NNE 05:31:48 18° ENE 05:34:42 10° ESE visible
29 Sep 5.9 05:32:54 10° NNE 05:36:27 24° ENE 05:39:56 10° SE visible
29 Sep 4.9 19:30:51 10° SSW 19:34:52 44° WNW 19:38:59 10° N visible
30 Sep 5.2 05:37:08 10° N 05:41:04 34° ENE 05:44:56 10° SE visible
30 Sep 5.7 19:35:43 10° SW 19:39:28 31° WNW 19:43:18 10° NNW visible
